| time (UTC) | temp F | wind direction | speed knots | gust knots | rain 1hr in | rain 24hr in | rain mn in | humidity % | barometer mb |
| 20260507003016 | 61 | 0 | 1.7 | 7.0 | 0.00 | 0.00 | 0.00 | 78 | 1012.4 |
| 20260507002516 | 61 | 0 | 4.3 | 7.0 | 0.00 | 0.00 | 0.00 | 78 | 1012.3 |
| 20260507002016 | 62 | 0 | 2.6 | 4.3 | 0.00 | 0.00 | 0.00 | 78 | 1012.4 |
| 20260507001516 | 62 | 0 | 2.6 | 6.1 | 0.00 | 0.00 | 0.00 | 78 | 1012.5 |
| 20260507001016 | 62 | 0 | 2.6 | 6.1 | 0.00 | 0.00 | 0.00 | 78 | 1012.5 |
| 20260507000516 | 62 | 0 | 2.6 | 7.0 | 0.00 | 0.00 | 0.00 | 78 | 1012.6 |
| 20260507000016 | 62 | 338 | 2.6 | 5.2 | 0.00 | 0.00 | 0.00 | 78 | 1012.7 |
| 20260506235516 | 62 | 338 | 2.6 | 6.1 | 0.00 | 0.00 | 0.00 | 78 | 1012.7 |
| 20260506235016 | 62 | 0 | 2.6 | 6.1 | 0.00 | 0.00 | 0.00 | 78 | 1012.8 |
| 20260506234516 | 62 | 0 | 2.6 | 6.1 | 0.00 | 0.00 | 0.00 | 78 | 1012.8 |
| 20260506234016 | 62 | 0 | 2.6 | 4.3 | 0.00 | 0.00 | 0.00 | 79 | 1012.8 |
| 20260506233536 | 62 | 0 | 2.6 | 6.1 | 0.00 | 0.00 | 0.00 | 79 | 1012.8 |
| 20260506233016 | 62 | 0 | 2.6 | 7.8 | 0.00 | 0.00 | 0.00 | 79 | 1012.8 |
| 20260506232516 | 62 | 0 | 2.6 | 7.8 | 0.00 | 0.00 | 0.00 | 79 | 1012.8 |
| 20260506232036 | 62 | 0 | 2.6 | 5.2 | 0.00 | 0.00 | 0.00 | 79 | 1012.8 |
| 20260506231516 | 62 | 0 | 2.6 | 7.0 | 0.00 | 0.00 | 0.00 | 79 | 1012.8 |
| 20260506231016 | 62 | 0 | 2.6 | 5.2 | 0.00 | 0.00 | 0.00 | 79 | 1012.8 |
| 20260506230616 | 62 | 0 | 2.6 | 4.3 | 0.00 | 0.00 | 0.00 | 79 | 1012.8 |
| 20260506230016 | 62 | 0 | 2.6 | 5.2 | 0.00 | 0.00 | 0.00 | 79 | 1012.9 |
| 20260506225516 | 62 | 0 | 3.5 | 7.0 | 0.00 | 0.00 | 0.00 | 79 | 1012.9 |
| 20260506225016 | 62 | 0 | 3.5 | 7.0 | 0.00 | 0.00 | 0.00 | 79 | 1012.9 |
| 20260506224516 | 62 | 0 | 3.5 | 7.0 | 0.00 | 0.00 | 0.00 | 79 | 1012.9 |
| 20260506224016 | 62 | 0 | 3.5 | 7.0 | 0.00 | 0.00 | 0.00 | 79 | 1012.8 |
| 20260506223516 | 62 | 23 | 3.5 | 7.0 | 0.00 | 0.00 | 0.00 | 79 | 1012.9 |
| 20260506223016 | 62 | 23 | 3.5 | 7.0 | 0.00 | 0.00 | 0.00 | 79 | 1012.8 |
| 20260506222516 | 62 | 0 | 2.6 | 5.2 | 0.00 | 0.00 | 0.00 | 80 | 1012.8 |
| 20260506222016 | 62 | 23 | 2.6 | 7.0 | 0.00 | 0.00 | 0.00 | 80 | 1012.8 |
| 20260506221516 | 62 | 68 | 1.7 | 4.3 | 0.00 | 0.00 | 0.00 | 80 | 1012.9 |
| 20260506221016 | 62 | 68 | 1.7 | 4.3 | 0.00 | 0.00 | 0.00 | 80 | 1013.0 |
| 20260506220515 | 62 | 45 | 1.7 | 5.2 | 0.00 | 0.00 | 0.00 | 80 | 1013.0 |
| 20260506220016 | 63 | 68 | 0.9 | 4.3 | 0.00 | 0.00 | 0.00 | 80 | 1013.0 |
| 20260506215517 | 63 | 23 | 0.9 | 3.5 | 0.00 | 0.00 | 0.00 | 79 | 1013.1 |
| 20260506215017 | 63 | 68 | 0.9 | 4.3 | 0.00 | 0.00 | 0.00 | 79 | 1013.0 |
| 20260506214517 | 63 | 45 | 0.9 | 2.6 | 0.00 | 0.00 | 0.00 | 79 | 1013.1 |
| 20260506214037 | 63 | 45 | 0.9 | 2.6 | 0.00 | 0.00 | 0.00 | 79 | 1013.2 |
| 20260506213516 | 63 | 45 | 0.9 | 2.6 | 0.00 | 0.00 | 0.00 | 79 | 1013.4 |
| 20260506213016 | 63 | 0.0 | 2.6 | 0.00 | 0.00 | 0.00 | 79 | 1013.4 | |
| 20260506212517 | 63 | 0.0 | 1.7 | 0.00 | 0.00 | 0.00 | 79 | 1013.4 | |
| 20260506212036 | 63 | 0.0 | 2.6 | 0.00 | 0.00 | 0.00 | 79 | 1013.5 | |
| 20260506211517 | 63 | 0.0 | 2.6 | 0.00 | 0.00 | 0.00 | 79 | 1013.4 | |
| 20260506211017 | 63 | 45 | 0.9 | 3.5 | 0.00 | 0.00 | 0.00 | 79 | 1013.3 |
| 20260506210516 | 63 | 45 | 1.7 | 4.3 | 0.00 | 0.00 | 0.00 | 79 | 1013.3 |
| 20260506210017 | 63 | 45 | 0.9 | 3.5 | 0.00 | 0.00 | 0.00 | 79 | 1013.2 |
| 20260506205536 | 63 | 45 | 1.7 | 3.5 | 0.00 | 0.00 | 0.00 | 79 | 1013.1 |
| 20260506205017 | 63 | 45 | 1.7 | 4.3 | 0.00 | 0.00 | 0.00 | 79 | 1013.1 |
| 20260506204516 | 63 | 68 | 1.7 | 4.3 | 0.00 | 0.00 | 0.00 | 79 | 1013.2 |
| 20260506204016 | 63 | 68 | 0.9 | 3.5 | 0.00 | 0.00 | 0.00 | 79 | 1013.2 |
| 20260506203516 | 63 | 68 | 0.9 | 2.6 | 0.00 | 0.00 | 0.00 | 79 | 1013.1 |
| 20260506203016 | 63 | 68 | 0.9 | 3.5 | 0.00 | 0.00 | 0.00 | 79 | 1013.0 |
| 20260506202517 | 63 | 68 | 0.9 | 2.6 | 0.00 | 0.00 | 0.00 | 79 | 1012.9 |
| 20260506202017 | 63 | 68 | 1.7 | 3.5 | 0.00 | 0.00 | 0.00 | 79 | 1012.9 |
| 20260506201516 | 63 | 68 | 1.7 | 3.5 | 0.00 | 0.00 | 0.00 | 78 | 1012.8 |
| 20260506201017 | 63 | 90 | 1.7 | 4.3 | 0.00 | 0.00 | 0.00 | 78 | 1012.8 |
| 20260506200537 | 63 | 90 | 0.9 | 3.5 | 0.00 | 0.00 | 0.00 | 78 | 1012.8 |
| 20260506200037 | 63 | 90 | 1.7 | 4.3 | 0.00 | 0.00 | 0.00 | 78 | 1012.6 |
| 20260506195517 | 63 | 90 | 0.9 | 2.6 | 0.00 | 0.00 | 0.00 | 78 | 1012.6 |
| 20260506195016 | 63 | 90 | 1.7 | 3.5 | 0.00 | 0.00 | 0.00 | 77 | 1012.4 |
| 20260506194517 | 63 | 90 | 2.6 | 4.3 | 0.00 | 0.00 | 0.00 | 77 | 1012.3 |
| 20260506194016 | 63 | 68 | 1.7 | 3.5 | 0.00 | 0.00 | 0.00 | 77 | 1012.4 |
| 20260506193516 | 63 | 45 | 2.6 | 6.1 | 0.00 | 0.00 | 0.00 | 77 | 1012.3 |
| 20260506193016 | 63 | 90 | 1.7 | 4.3 | 0.00 | 0.00 | 0.00 | 77 | 1012.2 |
| 20260506192537 | 63 | 68 | 2.6 | 6.1 | 0.00 | 0.00 | 0.00 | 77 | 1012.2 |
| 20260506192016 | 63 | 68 | 4.3 | 8.7 | 0.00 | 0.00 | 0.00 | 77 | 1012.1 |
| 20260506191516 | 63 | 90 | 6.1 | 9.6 | 0.00 | 0.00 | 0.00 | 77 | 1012.0 |
| 20260506191016 | 63 | 68 | 5.2 | 9.6 | 0.00 | 0.00 | 0.00 | 77 | 1012.0 |
| 20260506190516 | 64 | 68 | 6.1 | 11.3 | 0.00 | 0.00 | 0.00 | 77 | 1012.0 |
| 20260506190017 | 64 | 68 | 9.6 | 13.9 | 0.00 | 0.00 | 0.00 | 77 | 1012.0 |
| 20260506185536 | 64 | 68 | 6.1 | 12.2 | 0.00 | 0.00 | 0.00 | 77 | 1012.0 |
| 20260506185016 | 64 | 68 | 7.0 | 11.3 | 0.00 | 0.00 | 0.00 | 77 | 1011.9 |
| 20260506184536 | 64 | 68 | 7.8 | 11.3 | 0.00 | 0.00 | 0.00 | 77 | 1011.9 |
| 20260506184016 | 64 | 68 | 4.3 | 12.2 | 0.00 | 0.00 | 0.00 | 77 | 1011.8 |
| 20260506183516 | 64 | 68 | 6.1 | 13.0 | 0.00 | 0.00 | 0.00 | 76 | 1011.8 |
| 20260506183016 | 64 | 68 | 7.0 | 13.0 | 0.00 | 0.00 | 0.00 | 76 | 1011.7 |
| 20260506182516 | 64 | 90 | 7.8 | 13.9 | 0.00 | 0.00 | 0.00 | 76 | 1011.7 |
| 20260506182016 | 64 | 68 | 11.3 | 15.6 | 0.00 | 0.00 | 0.00 | 75 | 1011.6 |
| 20260506181516 | 64 | 90 | 8.7 | 13.9 | 0.00 | 0.00 | 0.00 | 74 | 1011.6 |
| 20260506181036 | 64 | 68 | 10.4 | 15.6 | 0.00 | 0.00 | 0.00 | 74 | 1011.5 |
| 20260506180516 | 64 | 68 | 10.4 | 15.6 | 0.00 | 0.00 | 0.00 | 74 | 1011.6 |
| 20260506180016 | 64 | 90 | 7.0 | 13.0 | 0.00 | 0.00 | 0.00 | 74 | 1011.6 |
| 20260506175516 | 64 | 68 | 7.8 | 12.2 | 0.00 | 0.00 | 0.00 | 76 | 1011.7 |
| 20260506175016 | 64 | 68 | 7.0 | 10.4 | 0.00 | 0.00 | 0.00 | 76 | 1011.6 |
| 20260506174516 | 64 | 68 | 9.6 | 13.9 | 0.00 | 0.00 | 0.00 | 76 | 1011.6 |
| 20260506174016 | 65 | 68 | 9.6 | 13.9 | 0.00 | 0.00 | 0.00 | 76 | 1011.6 |
| 20260506173517 | 65 | 68 | 8.7 | 13.9 | 0.00 | 0.00 | 0.00 | 75 | 1011.7 |
| 20260506173056 | 65 | 68 | 9.6 | 15.6 | 0.00 | 0.00 | 0.00 | 75 | 1011.7 |
| 20260506172516 | 65 | 68 | 11.3 | 16.5 | 0.00 | 0.00 | 0.00 | 75 | 1011.6 |
| 20260506172016 | 65 | 90 | 10.4 | 16.5 | 0.00 | 0.00 | 0.00 | 75 | 1011.5 |
| 20260506171516 | 65 | 68 | 10.4 | 16.5 | 0.00 | 0.00 | 0.00 | 76 | 1011.5 |
| 20260506171017 | 65 | 68 | 13.0 | 19.1 | 0.00 | 0.00 | 0.00 | 75 | 1011.5 |
| 20260506170516 | 65 | 68 | 12.2 | 19.1 | 0.00 | 0.00 | 0.00 | 75 | 1011.4 |
| 20260506170016 | 65 | 68 | 9.6 | 16.5 | 0.00 | 0.00 | 0.00 | 75 | 1011.4 |
| 20260506165516 | 65 | 68 | 9.6 | 14.8 | 0.00 | 0.00 | 0.00 | 74 | 1011.4 |
| 20260506165016 | 65 | 68 | 10.4 | 18.2 | 0.00 | 0.00 | 0.00 | 75 | 1011.5 |
| 20260506164516 | 65 | 90 | 13.0 | 20.0 | 0.00 | 0.00 | 0.00 | 75 | 1011.3 |
| 20260506164016 | 65 | 68 | 10.4 | 17.4 | 0.00 | 0.00 | 0.00 | 74 | 1011.4 |
| 20260506163516 | 65 | 90 | 11.3 | 18.2 | 0.00 | 0.00 | 0.00 | 74 | 1011.4 |
| 20260506163036 | 66 | 68 | 14.8 | 20.0 | 0.00 | 0.00 | 0.00 | 73 | 1011.4 |
| 20260506162536 | 66 | 68 | 13.0 | 17.4 | 0.00 | 0.00 | 0.00 | 73 | 1011.3 |
| 20260506162016 | 66 | 90 | 13.9 | 20.0 | 0.00 | 0.00 | 0.00 | 73 | 1011.4 |
| 20260506161516 | 66 | 68 | 13.0 | 18.2 | 0.00 | 0.00 | 0.00 | 73 | 1011.4 |
| 20260506161036 | 66 | 68 | 13.0 | 20.9 | 0.00 | 0.00 | 0.00 | 71 | 1011.4 |
| 20260506160516 | 66 | 90 | 15.6 | 20.9 | 0.00 | 0.00 | 0.00 | 71 | 1011.2 |
| 20260506160016 | 67 | 90 | 13.0 | 18.2 | 0.00 | 0.00 | 0.00 | 70 | 1011.2 |
| 20260506155516 | 66 | 68 | 11.3 | 17.4 | 0.00 | 0.00 | 0.00 | 71 | 1011.1 |
| 20260506155016 | 67 | 68 | 13.0 | 20.9 | 0.00 | 0.00 | 0.00 | 70 | 1011.1 |
| 20260506154516 | 67 | 68 | 13.0 | 19.1 | 0.00 | 0.00 | 0.00 | 69 | 1011.2 |
| 20260506154016 | 67 | 90 | 11.3 | 17.4 | 0.00 | 0.00 | 0.00 | 70 | 1011.2 |
| 20260506153516 | 67 | 90 | 13.9 | 20.0 | 0.00 | 0.00 | 0.00 | 69 | 1011.2 |
| 20260506153016 | 67 | 90 | 13.9 | 19.1 | 0.00 | 0.00 | 0.00 | 69 | 1011.2 |
| 20260506152517 | 67 | 90 | 13.0 | 21.7 | 0.00 | 0.00 | 0.00 | 69 | 1011.3 |
| 20260506152016 | 67 | 90 | 12.2 | 18.2 | 0.00 | 0.00 | 0.00 | 69 | 1011.3 |
| 20260506151516 | 68 | 68 | 11.3 | 20.9 | 0.00 | 0.00 | 0.00 | 67 | 1011.3 |
| 20260506151016 | 68 | 68 | 12.2 | 19.1 | 0.00 | 0.00 | 0.00 | 68 | 1011.3 |
| 20260506150516 | 67 | 90 | 13.0 | 18.2 | 0.00 | 0.00 | 0.00 | 69 | 1011.3 |
| 20260506150016 | 67 | 90 | 14.8 | 21.7 | 0.00 | 0.00 | 0.00 | 69 | 1011.3 |
| 20260506145516 | 67 | 90 | 15.6 | 24.3 | 0.00 | 0.00 | 0.00 | 69 | 1011.4 |
| 20260506145016 | 67 | 68 | 13.0 | 20.9 | 0.00 | 0.00 | 0.00 | 68 | 1011.5 |
| 20260506144516 | 67 | 68 | 13.0 | 22.6 | 0.00 | 0.00 | 0.00 | 69 | 1011.5 |
| 20260506144016 | 67 | 68 | 14.8 | 20.9 | 0.00 | 0.00 | 0.00 | 69 | 1011.5 |
| 20260506143516 | 67 | 68 | 13.0 | 21.7 | 0.00 | 0.00 | 0.00 | 68 | 1011.7 |
| 20260506143016 | 67 | 68 | 13.0 | 20.9 | 0.00 | 0.00 | 0.00 | 69 | 1011.7 |
| 20260506142516 | 67 | 68 | 12.2 | 18.2 | 0.00 | 0.00 | 0.00 | 69 | 1011.7 |
| 20260506142016 | 67 | 68 | 13.0 | 21.7 | 0.00 | 0.00 | 0.00 | 69 | 1011.8 |
| 20260506141516 | 67 | 68 | 13.0 | 23.5 | 0.00 | 0.00 | 0.00 | 69 | 1011.8 |
| 20260506141016 | 67 | 68 | 14.8 | 21.7 | 0.00 | 0.00 | 0.00 | 70 | 1011.9 |
| 20260506140516 | 67 | 68 | 14.8 | 23.5 | 0.00 | 0.00 | 0.00 | 69 | 1011.8 |
| 20260506140016 | 67 | 90 | 13.9 | 20.9 | 0.00 | 0.00 | 0.00 | 69 | 1011.8 |
| 20260506135516 | 67 | 45 | 13.9 | 21.7 | 0.00 | 0.00 | 0.00 | 70 | 1011.9 |
| 20260506135016 | 67 | 68 | 14.8 | 21.7 | 0.00 | 0.00 | 0.00 | 71 | 1011.8 |
| 20260506134516 | 67 | 68 | 13.9 | 20.0 | 0.00 | 0.00 | 0.00 | 69 | 1011.9 |
| 20260506134016 | 67 | 68 | 14.8 | 25.2 | 0.00 | 0.00 | 0.00 | 70 | 1011.8 |
| 20260506133516 | 67 | 68 | 15.6 | 25.2 | 0.00 | 0.00 | 0.00 | 70 | 1011.8 |
| 20260506133016 | 67 | 68 | 14.8 | 22.6 | 0.00 | 0.00 | 0.00 | 70 | 1011.8 |
| 20260506132516 | 68 | 68 | 13.9 | 20.9 | 0.00 | 0.00 | 0.00 | 69 | 1011.9 |
| 20260506132016 | 67 | 68 | 12.2 | 20.0 | 0.00 | 0.00 | 0.00 | 71 | 1011.9 |
| 20260506131516 | 67 | 68 | 15.6 | 21.7 | 0.00 | 0.00 | 0.00 | 72 | 1011.9 |
| 20260506131016 | 67 | 68 | 14.8 | 21.7 | 0.00 | 0.00 | 0.00 | 71 | 1012.0 |
| 20260506130516 | 67 | 90 | 13.0 | 19.1 | 0.00 | 0.00 | 0.00 | 70 | 1012.0 |
| 20260506130016 | 67 | 68 | 14.8 | 24.3 | 0.00 | 0.00 | 0.00 | 69 | 1012.0 |
| 20260506125516 | 68 | 68 | 15.6 | 24.3 | 0.00 | 0.00 | 0.00 | 69 | 1012.0 |
| 20260506125016 | 68 | 68 | 13.9 | 21.7 | 0.00 | 0.00 | 0.00 | 68 | 1012.0 |
| 20260506124516 | 68 | 68 | 13.9 | 20.9 | 0.00 | 0.00 | 0.00 | 67 | 1012.1 |
| 20260506124016 | 68 | 68 | 13.0 | 17.4 | 0.00 | 0.00 | 0.00 | 67 | 1012.0 |
| 20260506123516 | 68 | 68 | 14.8 | 21.7 | 0.00 | 0.00 | 0.00 | 69 | 1012.1 |
| 20260506123016 | 68 | 68 | 13.0 | 23.5 | 0.00 | 0.00 | 0.00 | 68 | 1012.0 |
| 20260506122515 | 67 | 68 | 14.8 | 23.5 | 0.00 | 0.00 | 0.00 | 69 | 1012.0 |
| 20260506122016 | 67 | 68 | 13.9 | 20.0 | 0.00 | 0.00 | 0.00 | 69 | 1012.1 |
| 20260506121516 | 68 | 68 | 13.9 | 20.9 | 0.00 | 0.00 | 0.00 | 69 | 1012.2 |
| 20260506121016 | 68 | 68 | 15.6 | 21.7 | 0.00 | 0.00 | 0.00 | 68 | 1012.2 |
| 20260506120516 | 68 | 90 | 13.0 | 20.0 | 0.00 | 0.00 | 0.00 | 69 | 1012.2 |
| 20260506120016 | 68 | 68 | 14.8 | 21.7 | 0.00 | 0.00 | 0.00 | 68 | 1012.1 |
| 20260506115516 | 68 | 90 | 13.9 | 20.9 | 0.00 | 0.00 | 0.00 | 68 | 1012.2 |
| 20260506115016 | 68 | 90 | 13.0 | 17.4 | 0.00 | 0.00 | 0.00 | 69 | 1012.3 |
| 20260506114535 | 68 | 68 | 12.2 | 17.4 | 0.00 | 0.00 | 0.00 | 68 | 1012.3 |
| 20260506114015 | 68 | 90 | 13.0 | 20.0 | 0.00 | 0.00 | 0.00 | 68 | 1012.3 |
| 20260506113516 | 68 | 68 | 13.9 | 19.1 | 0.00 | 0.00 | 0.00 | 67 | 1012.3 |
| 20260506113016 | 68 | 68 | 13.0 | 19.1 | 0.00 | 0.00 | 0.00 | 67 | 1012.3 |
| 20260506112515 | 68 | 90 | 13.0 | 22.6 | 0.00 | 0.00 | 0.00 | 66 | 1012.3 |
| 20260506112015 | 69 | 90 | 13.0 | 18.2 | 0.00 | 0.00 | 0.00 | 65 | 1012.4 |
| 20260506111515 | 69 | 68 | 12.2 | 17.4 | 0.00 | 0.00 | 0.00 | 65 | 1012.4 |
| 20260506111016 | 69 | 90 | 10.4 | 15.6 | 0.00 | 0.00 | 0.00 | 65 | 1012.5 |
| 20260506110516 | 68 | 90 | 9.6 | 16.5 | 0.00 | 0.00 | 0.00 | 67 | 1012.6 |
| 20260506110015 | 68 | 90 | 13.0 | 20.0 | 0.00 | 0.00 | 0.00 | 68 | 1012.6 |
| 20260506105515 | 68 | 90 | 12.2 | 18.2 | 0.00 | 0.00 | 0.00 | 67 | 1012.6 |
| 20260506105016 | 69 | 68 | 10.4 | 16.5 | 0.00 | 0.00 | 0.00 | 67 | 1012.7 |
| 20260506104516 | 69 | 90 | 9.6 | 19.1 | 0.00 | 0.00 | 0.00 | 66 | 1012.7 |
| 20260506104016 | 68 | 68 | 9.6 | 16.5 | 0.00 | 0.00 | 0.00 | 63 | 1012.6 |
| 20260506103516 | 68 | 68 | 10.4 | 17.4 | 0.00 | 0.00 | 0.00 | 65 | 1012.6 |
| 20260506103015 | 68 | 68 | 12.2 | 20.9 | 0.00 | 0.00 | 0.00 | 66 | 1012.7 |
| 20260506102515 | 69 | 68 | 10.4 | 18.2 | 0.00 | 0.00 | 0.00 | 64 | 1012.7 |
| 20260506102016 | 68 | 90 | 10.4 | 17.4 | 0.00 | 0.00 | 0.00 | 64 | 1012.6 |
| 20260506101516 | 68 | 68 | 12.2 | 16.5 | 0.00 | 0.00 | 0.00 | 65 | 1012.6 |
| 20260506101016 | 68 | 68 | 13.9 | 22.6 | 0.00 | 0.00 | 0.00 | 63 | 1012.6 |
| 20260506100515 | 68 | 90 | 13.9 | 19.1 | 0.00 | 0.00 | 0.00 | 62 | 1012.7 |
| 20260506100016 | 68 | 68 | 11.3 | 18.2 | 0.00 | 0.00 | 0.00 | 65 | 1012.6 |
| 20260506095515 | 68 | 68 | 10.4 | 17.4 | 0.00 | 0.00 | 0.00 | 65 | 1012.6 |
| 20260506095015 | 68 | 68 | 11.3 | 19.1 | 0.00 | 0.00 | 0.00 | 65 | 1012.5 |
| 20260506094515 | 68 | 90 | 11.3 | 18.2 | 0.00 | 0.00 | 0.00 | 64 | 1012.6 |
| 20260506094015 | 69 | 68 | 10.4 | 15.6 | 0.00 | 0.00 | 0.00 | 63 | 1012.5 |
| 20260506093515 | 68 | 90 | 11.3 | 16.5 | 0.00 | 0.00 | 0.00 | 64 | 1012.5 |
| 20260506093015 | 68 | 68 | 8.7 | 13.9 | 0.00 | 0.00 | 0.00 | 65 | 1012.4 |
| 20260506092515 | 68 | 68 | 8.7 | 13.0 | 0.00 | 0.00 | 0.00 | 65 | 1012.4 |
| 20260506092015 | 68 | 68 | 5.2 | 13.0 | 0.00 | 0.00 | 0.00 | 65 | 1012.4 |
| 20260506091515 | 67 | 45 | 3.5 | 7.8 | 0.00 | 0.00 | 0.00 | 64 | 1012.2 |
| 20260506091015 | 67 | 45 | 4.3 | 7.8 | 0.00 | 0.00 | 0.00 | 65 | 1012.2 |
| 20260506090536 | 67 | 23 | 2.6 | 5.2 | 0.00 | 0.00 | 0.00 | 65 | 1012.2 |
| 20260506090035 | 67 | 90 | 4.3 | 9.6 | 0.00 | 0.00 | 0.00 | 65 | 1012.2 |
| 20260506085515 | 67 | 68 | 3.5 | 7.8 | 0.00 | 0.00 | 0.00 | 65 | 1012.2 |
| 20260506085015 | 68 | 68 | 4.3 | 8.7 | 0.00 | 0.00 | 0.00 | 64 | 1012.2 |
| 20260506084515 | 68 | 68 | 1.7 | 4.3 | 0.00 | 0.00 | 0.00 | 65 | 1012.2 |
| 20260506084015 | 68 | 113 | 4.3 | 8.7 | 0.00 | 0.00 | 0.00 | 65 | 1012.1 |
| 20260506083515 | 68 | 90 | 5.2 | 9.6 | 0.00 | 0.00 | 0.00 | 64 | 1012.2 |
| 20260506083015 | 68 | 90 | 0.9 | 5.2 | 0.00 | 0.00 | 0.00 | 65 | 1012.2 |
| 20260506082515 | 67 | 68 | 3.5 | 7.8 | 0.00 | 0.00 | 0.00 | 65 | 1012.1 |
| 20260506082015 | 68 | 68 | 2.6 | 7.8 | 0.00 | 0.00 | 0.00 | 66 | 1012.2 |
| 20260506081515 | 67 | 68 | 0.9 | 4.3 | 0.00 | 0.00 | 0.00 | 70 | 1012.2 |
| 20260506081015 | 66 | 45 | 0.9 | 4.3 | 0.00 | 0.00 | 0.00 | 71 | 1012.1 |
| 20260506080515 | 66 | 45 | 2.6 | 4.3 | 0.00 | 0.00 | 0.00 | 70 | 1012.2 |
| 20260506073017 | 67 | 0.0 | 2.6 | 0.00 | 0.00 | 0.00 | 70 | 1012.3 | |
| 20260506072517 | 67 | 315 | 2.6 | 6.1 | 0.00 | 0.00 | 0.00 | 69 | 1012.2 |
| 20260506072017 | 67 | 293 | 2.6 | 5.2 | 0.00 | 0.00 | 0.00 | 69 | 1012.2 |
| 20260506071517 | 67 | 315 | 2.6 | 7.0 | 0.00 | 0.00 | 0.00 | 69 | 1012.2 |
| 20260506071017 | 66 | 293 | 2.6 | 7.0 | 0.00 | 0.00 | 0.00 | 69 | 1012.2 |
| 20260506070517 | 66 | 270 | 3.5 | 7.0 | 0.00 | 0.00 | 0.00 | 69 | 1012.2 |
| 20260506062517 | 64 | 270 | 2.6 | 7.0 | 0.00 | 0.00 | 0.00 | 71 | 1012.2 |
| 20260506062017 | 64 | 293 | 2.6 | 6.1 | 0.00 | 0.00 | 0.00 | 72 | 1012.2 |
| 20260506061517 | 63 | 270 | 1.7 | 7.0 | 0.00 | 0.00 | 0.00 | 73 | 1012.1 |
| 20260506061017 | 63 | 270 | 2.6 | 3.5 | 0.00 | 0.00 | 0.00 | 74 | 1012.2 |
| 20260506060517 | 62 | 270 | 2.6 | 5.2 | 0.00 | 0.00 | 0.00 | 74 | 1012.2 |
| 20260506051017 | 61 | 0 | 2.6 | 7.0 | 0.00 | 0.00 | 0.00 | 73 | 1011.6 |
| 20260506050517 | 61 | 0 | 2.6 | 5.2 | 0.00 | 0.00 | 0.00 | 72 | 1011.6 |
| 20260506045017 | 60 | 0 | 2.6 | 5.2 | 0.00 | 0.00 | 0.00 | 71 | 1011.4 |
| 20260506044517 | 60 | 338 | 3.5 | 7.0 | 0.00 | 0.00 | 0.00 | 71 | 1011.4 |
| 20260506044017 | 60 | 0 | 3.5 | 7.0 | 0.00 | 0.00 | 0.00 | 71 | 1011.4 |
| 20260506043537 | 60 | 0 | 3.5 | 5.2 | 0.00 | 0.00 | 0.00 | 71 | 1011.4 |
| 20260506043017 | 60 | 338 | 2.6 | 5.2 | 0.00 | 0.00 | 0.00 | 71 | 1011.4 |
| 20260506042517 | 61 | 0 | 2.6 | 5.2 | 0.00 | 0.00 | 0.00 | 71 | 1011.4 |
| 20260506042017 | 61 | 338 | 2.6 | 4.3 | 0.00 | 0.00 | 0.00 | 72 | 1011.4 |
| 20260506041537 | 61 | 338 | 1.7 | 3.5 | 0.00 | 0.00 | 0.00 | 72 | 1011.4 |
| 20260506041017 | 61 | 338 | 2.6 | 4.3 | 0.00 | 0.00 | 0.00 | 71 | 1011.3 |
| 20260506040517 | 61 | 338 | 2.6 | 4.3 | 0.00 | 0.00 | 0.00 | 71 | 1011.3 |
| 20260506040017 | 61 | 338 | 2.6 | 5.2 | 0.00 | 0.00 | 0.00 | 71 | 1011.3 |
| 20260506035537 | 61 | 315 | 2.6 | 4.3 | 0.00 | 0.00 | 0.00 | 71 | 1011.2 |
| 20260506035017 | 61 | 315 | 2.6 | 4.3 | 0.00 | 0.00 | 0.00 | 71 | 1011.2 |
| 20260506034517 | 61 | 293 | 2.6 | 4.3 | 0.00 | 0.00 | 0.00 | 72 | 1011.3 |
| 20260506034017 | 61 | 293 | 2.6 | 5.2 | 0.00 | 0.00 | 0.00 | 72 | 1011.3 |
| 20260506033517 | 61 | 315 | 4.3 | 7.0 | 0.00 | 0.00 | 0.00 | 72 | 1011.3 |
| 20260506033017 | 61 | 315 | 6.1 | 9.6 | 0.00 | 0.00 | 0.00 | 72 | 1011.2 |
| 20260506032517 | 61 | 315 | 4.3 | 8.7 | 0.00 | 0.00 | 0.00 | 72 | 1011.3 |
| 20260506032017 | 61 | 315 | 3.5 | 7.8 | 0.00 | 0.00 | 0.00 | 71 | 1011.2 |
| 20260506031516 | 61 | 315 | 3.5 | 7.0 | 0.00 | 0.00 | 0.00 | 71 | 1011.3 |
| 20260506031017 | 61 | 338 | 3.5 | 7.0 | 0.00 | 0.00 | 0.00 | 70 | 1011.3 |
| 20260506030517 | 61 | 0 | 3.5 | 5.2 | 0.00 | 0.00 | 0.00 | 69 | 1011.3 |
| 20260506030017 | 61 | 23 | 1.7 | 3.5 | 0.00 | 0.00 | 0.00 | 68 | 1011.2 |
| 20260506025536 | 61 | 45 | 0.9 | 3.5 | 0.00 | 0.00 | 0.00 | 67 | 1011.1 |
| 20260506025016 | 62 | 45 | 0.9 | 2.6 | 0.00 | 0.00 | 0.00 | 66 | 1011.1 |
| 20260506024516 | 62 | 45 | 0.9 | 3.5 | 0.00 | 0.00 | 0.00 | 66 | 1011.1 |
| 20260506024017 | 62 | 68 | 0.9 | 2.6 | 0.00 | 0.00 | 0.00 | 66 | 1011.0 |
| 20260506023517 | 61 | 90 | 0.9 | 3.5 | 0.00 | 0.00 | 0.00 | 67 | 1011.0 |
| 20260506023016 | 61 | 90 | 1.7 | 3.5 | 0.00 | 0.00 | 0.00 | 67 | 1011.0 |
| 20260506022517 | 62 | 68 | 1.7 | 3.5 | 0.00 | 0.00 | 0.00 | 66 | 1011.0 |
| 20260506022016 | 62 | 0.0 | 0.9 | 0.00 | 0.00 | 0.00 | 66 | 1011.0 | |
| 20260506021516 | 63 | 338 | 0.9 | 2.6 | 0.00 | 0.00 | 0.00 | 65 | 1010.9 |
| 20260506021016 | 63 | 0.0 | 0.9 | 0.00 | 0.00 | 0.00 | 63 | 1011.0 | |
| 20260506020516 | 63 | 0.0 | 1.7 | 0.00 | 0.00 | 0.00 | 63 | 1011.0 | |
| 20260506020017 | 63 | 225 | 0.9 | 2.6 | 0.00 | 0.00 | 0.00 | 63 | 1011.0 |
| 20260506015516 | 62 | 225 | 0.9 | 2.6 | 0.00 | 0.00 | 0.00 | 63 | 1011.0 |
| 20260506015037 | 62 | 225 | 0.9 | 2.6 | 0.00 | 0.00 | 0.00 | 64 | 1011.0 |
| 20260506014516 | 63 | 248 | 1.7 | 3.5 | 0.00 | 0.00 | 0.00 | 64 | 1011.0 |
| 20260506014036 | 63 | 248 | 2.6 | 4.3 | 0.00 | 0.00 | 0.00 | 64 | 1011.1 |
| 20260506013517 | 63 | 225 | 2.6 | 5.2 | 0.00 | 0.00 | 0.00 | 64 | 1011.1 |
| 20260506013016 | 63 | 248 | 2.6 | 3.5 | 0.00 | 0.00 | 0.00 | 65 | 1011.1 |
| 20260506012537 | 63 | 315 | 0.9 | 2.6 | 0.00 | 0.00 | 0.00 | 65 | 1011.1 |
| 20260506012036 | 62 | 293 | 1.7 | 3.5 | 0.00 | 0.00 | 0.00 | 65 | 1011.0 |
| 20260506011517 | 62 | 0.0 | 0.0 | 0.00 | 0.00 | 0.00 | 66 | 1011.1 | |
| 20260506011016 | 62 | 0.0 | 2.6 | 0.00 | 0.00 | 0.00 | 66 | 1011.1 | |
| 20260506010537 | 62 | 0.0 | 0.0 | 0.00 | 0.00 | 0.00 | 67 | 1011.1 | |
| 20260506010016 | 62 | 0.0 | 1.7 | 0.00 | 0.00 | 0.00 | 68 | 1011.1 | |
| 20260506005517 | 62 | 0.0 | 0.0 | 0.00 | 0.00 | 0.00 | 68 | 1011.1 | |
| 20260506005017 | 62 | 0.0 | 0.9 | 0.00 | 0.00 | 0.00 | 69 | 1011.1 | |
| 20260506004516 | 62 | 270 | 0.9 | 2.6 | 0.00 | 0.00 | 0.00 | 69 | 1011.1 |
| 20260506004017 | 62 | 270 | 1.7 | 3.5 | 0.00 | 0.00 | 0.00 | 70 | 1011.1 |
| 20260506003537 | 62 | 270 | 1.7 | 5.2 | 0.00 | 0.00 | 0.00 | 71 | 1011.1 |